FW8782 Weather Reports


Display with metric or nautical units.
time (UTC)temp
F
wind
direction
speed
MPH
gust
MPH
rain 1hr
in
rain 24hr
in
rain mn
in
humidity
%
barometer
mb
20260504012015 85 0 0.0 2.0 0.00 0.00 0.00 39 1008.7
20260504011532 85 0 0.0 2.0 0.00 0.00 0.00 39 1008.8
20260504011014 86 65 0.0 2.0 0.00 0.00 0.00 39 1008.8
20260504010517 86 315 0.0 2.0 0.00 0.00 0.00 39 1008.8
20260504010030 86 0 0.0 2.0 0.00 0.00 0.00 37 1008.8
20260504005515 86 90 0.0 2.0 0.00 0.00 0.00 38 1008.8
20260504005015 86 0 0.0 2.0 0.00 0.00 0.00 41 1008.9
20260504004541 87 171 0.0 2.0 0.00 0.00 0.00 37 1008.9
20260504004014 87 0 0.0 2.0 0.00 0.00 0.00 37 1009.0
20260504003516 87 0 0.0 2.0 0.00 0.00 0.00 36 1009.0
20260504003032 87 317 0.0 2.0 0.00 0.00 0.00 37 1009.0
20260504002514 86 0 0.0 2.0 0.00 0.00 0.00 40 1009.1
20260504002014 86 31 0.0 2.0 0.00 0.00 0.00 41 1009.3
20260504001534 87 113 0.0 2.0 0.00 0.00 0.00 41 1009.4
20260504001017 87 102 0.0 2.0 0.00 0.00 0.00 36 1009.4
20260504000517 87 229 1.0 2.0 0.00 0.00 0.00 36 1009.5
20260504000032 87 69 1.0 2.0 0.00 0.00 0.00 38 1009.6
20260503235516 87 209 0.0 2.0 0.00 0.00 0.00 38 1009.5
20260503235016 88 238 0.0 2.0 0.00 0.00 0.00 39 1009.6
20260503234533 88 0 0.0 2.0 0.00 0.00 0.00 39 1009.6
20260503234015 87 0 0.0 2.0 0.00 0.00 0.00 38 1009.6
20260503233514 87 128 0.0 2.0 0.00 0.00 0.00 42 1009.6
20260503233032 87 278 0.0 2.0 0.00 0.00 0.00 36 1009.6
20260503232512 87 94 0.0 3.0 0.00 0.00 0.00 39 1009.7
20260503232012 87 18 0.0 3.0 0.00 0.00 0.00 43 1009.9
20260503231534 87 352 1.0 3.0 0.00 0.00 0.00 39 1010.0
20260503231015 86 31 1.0 3.0 0.00 0.00 0.00 38 1010.0
20260503230516 86 283 1.0 2.0 0.00 0.00 0.00 37 1010.1
20260503230032 86 0 1.0 2.0 0.00 0.00 0.00 42 1010.2
20260503225514 86 0 0.0 4.0 0.00 0.00 0.00 41 1010.2
20260503225015 86 75 1.0 4.0 0.00 0.00 0.00 40 1010.3
20260503224535 86 13 1.0 4.0 0.00 0.00 0.00 41 1010.3
20260503224014 85 331 1.0 5.0 0.00 0.00 0.00 41 1010.4
20260503223513 86 319 2.0 5.0 0.00 0.00 0.00 39 1010.5
20260503223033 86 316 1.0 3.0 0.00 0.00 0.00 39 1010.5
20260503222515 85 135 1.0 2.0 0.00 0.00 0.00 41 1010.5
20260503222015 85 313 1.0 5.0 0.00 0.00 0.00 41 1010.6
20260503221536 85 306 1.0 5.0 0.00 0.00 0.00 40 1010.6
20260503221015 85 47 1.0 3.0 0.00 0.00 0.00 43 1010.7
20260503220514 84 32 1.0 3.0 0.00 0.00 0.00 45 1010.8
20260503220037 84 318 0.0 3.0 0.00 0.00 0.00 43 1010.8
20260503215514 85 351 1.0 3.0 0.00 0.00 0.00 40 1010.9
20260503215013 84 0 0.0 4.0 0.00 0.00 0.00 42 1011.0
20260503214532 84 31 1.0 4.0 0.00 0.00 0.00 44 1011.0
20260503214015 84 336 1.0 6.0 0.00 0.00 0.00 42 1011.1
20260503213514 84 321 0.0 6.0 0.00 0.00 0.00 43 1011.1
20260503213035 83 44 0.0 5.0 0.00 0.00 0.00 47 1011.2
20260503212513 83 56 1.0 5.0 0.00 0.00 0.00 43 1011.2
20260503212013 83 296 2.0 4.0 0.00 0.00 0.00 44 1011.3
20260503211538 83 324 1.0 4.0 0.00 0.00 0.00 48 1011.3
20260503211016 83 320 1.0 4.0 0.00 0.00 0.00 46 1011.4
20260503210514 83 117 0.0 4.0 0.00 0.00 0.00 44 1011.3
20260503210033 82 295 1.0 4.0 0.00 0.00 0.00 45 1011.4
20260503205522 82 321 1.0 3.0 0.00 0.00 0.00 46 1011.4
20260503205014 82 292 1.0 2.0 0.00 0.00 0.00 44 1011.6
20260503204533 82 314 0.0 3.0 0.00 0.00 0.00 45 1011.7
20260503204014 82 0 0.0 3.0 0.00 0.00 0.00 44 1011.7
20260503203515 82 346 0.0 3.0 0.00 0.00 0.00 47 1011.8
20260503203032 81 223 1.0 3.0 0.00 0.00 0.00 45 1011.9
20260503202515 81 315 1.0 4.0 0.00 0.00 0.00 46 1012.0
20260503202014 81 332 1.0 4.0 0.00 0.00 0.00 46 1012.0
20260503201532 81 344 1.0 4.0 0.00 0.00 0.00 47 1012.0
20260503201014 80 339 1.0 4.0 0.00 0.00 0.00 46 1012.0
20260503200514 80 336 0.0 3.0 0.00 0.00 0.00 49 1012.2
20260503200032 80 318 2.0 4.0 0.00 0.00 0.00 45 1012.2
20260503195514 80 81 1.0 5.0 0.00 0.00 0.00 48 1012.3
20260503195017 79 298 1.0 5.0 0.00 0.00 0.00 49 1012.4
20260503194541 79 325 1.0 5.0 0.00 0.00 0.00 48 1012.5
20260503194015 79 317 1.0 5.0 0.00 0.00 0.00 51 1012.6
20260503193516 79 342 1.0 3.0 0.00 0.00 0.00 50 1012.7
20260503193039 78 45 1.0 3.0 0.00 0.00 0.00 51 1012.7
20260503192515 78 350 1.0 5.0 0.00 0.00 0.00 51 1012.8
20260503192018 77 313 1.0 5.0 0.00 0.00 0.00 51 1012.8
20260503191530 77 360 1.0 5.0 0.00 0.00 0.00 52 1012.9
20260503191018 77 39 0.0 5.0 0.00 0.00 0.00 52 1012.9
20260503190515 77 329 1.0 4.0 0.00 0.00 0.00 52 1013.0
20260503190040 76 0 1.0 4.0 0.00 0.00 0.00 52 1013.0
20260503185514 76 352 1.0 4.0 0.00 0.00 0.00 51 1013.0
20260503185016 76 0 1.0 4.0 0.00 0.00 0.00 53 1013.0
20260503184530 76 315 1.0 4.0 0.00 0.00 0.00 54 1013.1
20260503184015 76 0 0.0 6.0 0.00 0.00 0.00 54 1013.1
20260503183515 75 296 0.0 6.0 0.00 0.00 0.00 55 1013.2
20260503183036 75 335 2.0 6.0 0.00 0.00 0.00 53 1013.2
20260503182523 74 47 1.0 6.0 0.00 0.00 0.00 54 1013.3
20260503182016 74 293 1.0 6.0 0.00 0.00 0.00 57 1013.3
20260503181536 73 57 1.0 5.0 0.00 0.00 0.00 56 1013.3
20260503181018 73 344 1.0 6.0 0.00 0.00 0.00 56 1013.4
20260503180514 73 360 1.0 5.0 0.00 0.00 0.00 57 1013.4
20260503180034 72 319 0.0 2.0 0.00 0.00 0.00 58 1013.4
20260503175516 72 319 1.0 2.0 0.00 0.00 0.00 58 1013.5
20260503175013 71 352 0.0 3.0 0.00 0.00 0.00 61 1013.5
20260503174543 70 348 1.0 3.0 0.00 0.00 0.00 59 1013.4
20260503174015 70 342 1.0 4.0 0.00 0.00 0.00 60 1013.5
20260503173515 70 325 1.0 4.0 0.00 0.00 0.00 62 1013.5
20260503173030 69 313 2.0 4.0 0.00 0.00 0.00 62 1013.6
20260503172514 68 346 1.0 4.0 0.00 0.00 0.00 63 1013.6
20260503172015 68 288 1.0 3.0 0.00 0.00 0.00 62 1013.6
20260503171530 68 348 1.0 3.0 0.00 0.00 0.00 62 1013.7
20260503171016 67 348 1.0 6.0 0.00 0.00 0.00 63 1013.6
20260503170515 67 346 0.0 6.0 0.00 0.00 0.00 64 1013.7
20260503151013 54 0 0.0 2.0 0.00 0.00 0.00 86 1014.0
20260503150511 53 0 0.0 2.0 0.00 0.00 0.00 87 1014.0
20260503131015 50 0 0.0 0.0 0.00 0.00 0.00 87 1013.6
20260503130515 50 0 0.0 0.0 0.00 0.00 0.00 87 1013.6
20260503110515 51 0 0.0 0.0 0.00 0.00 0.00 84 1014.0
20260503081543 55 0 0.0 0.0 0.00 0.00 0.00 81 1014.2
20260503081014 55 0 0.0 0.0 0.00 0.00 0.00 81 1014.2
20260503080515 55 0 0.0 0.0 0.00 0.00 0.00 81 1014.2
20260503072515 56 0 0.0 0.0 0.00 0.00 0.00 79 1014.3
20260503072012 57 0 0.0 0.0 0.00 0.00 0.00 79 1014.3
20260503071539 57 0 0.0 0.0 0.00 0.00 0.00 78 1014.3
20260503071010 57 0 0.0 0.0 0.00 0.00 0.00 78 1014.3
20260503070512 57 0 0.0 0.0 0.00 0.00 0.00 77 1014.3
20260503055013 59 0 0.0 0.0 0.00 0.00 0.00 73 1014.0
20260503054535 59 0 0.0 0.0 0.00 0.00 0.00 72 1014.1
20260503054013 59 0 0.0 0.0 0.00 0.00 0.00 70 1014.0
20260503053511 59 0 0.0 0.0 0.00 0.00 0.00 69 1014.1
20260503053034 60 0 0.0 0.0 0.00 0.00 0.00 70 1014.1
20260503052513 60 0 0.0 0.0 0.00 0.00 0.00 70 1014.1
20260503052018 60 0 0.0 0.0 0.00 0.00 0.00 70 1014.1
20260503051533 60 0 0.0 0.0 0.00 0.00 0.00 70 1014.1
20260503051010 61 0 0.0 0.0 0.00 0.00 0.00 70 1014.1
20260503050513 61 0 0.0 0.0 0.00 0.00 0.00 69 1014.0
20260503050030 61 0 0.0 0.0 0.00 0.00 0.00 68 1014.1
20260503045514 62 0 0.0 0.0 0.00 0.00 0.00 67 1014.1
20260503045011 62 0 0.0 0.0 0.00 0.00 0.00 66 1014.0
20260503044529 62 0 0.0 0.0 0.00 0.00 0.00 65 1013.9
20260503044013 62 0 0.0 0.0 0.00 0.00 0.00 65 1013.9
20260503043515 63 0 0.0 0.0 0.00 0.00 0.00 65 1013.8
20260503043033 63 0 0.0 0.0 0.00 0.00 0.00 65 1013.7
20260503042510 63 0 0.0 0.0 0.00 0.00 0.00 64 1013.7
20260503042016 63 0 0.0 0.0 0.00 0.00 0.00 64 1013.7
20260503041532 64 0 0.0 0.0 0.00 0.00 0.00 64 1013.7
20260503041015 64 0 0.0 0.0 0.00 0.00 0.00 64 1013.6
20260503040516 64 0 0.0 0.0 0.00 0.00 0.00 64 1013.4
20260503040030 64 0 0.0 0.0 0.00 0.00 0.00 63 1013.4
20260503035510 65 0 0.0 0.0 0.00 0.00 0.00 63 1013.3
20260503035014 65 0 0.0 0.0 0.00 0.00 0.00 63 1013.2
20260503034536 66 0 0.0 2.0 0.00 0.00 0.00 63 1013.1
20260503034013 66 0 0.0 2.0 0.00 0.00 0.00 63 1013.1
20260503033511 66 262 0.0 2.0 0.00 0.00 0.00 62 1013.0
20260503033032 66 0 0.0 2.0 0.00 0.00 0.00 62 1013.0
20260503032513 67 0 0.0 0.0 0.00 0.00 0.00 61 1012.9
20260503032015 67 0 0.0 0.0 0.00 0.00 0.00 62 1012.9
20260503031530 67 0 0.0 2.0 0.00 0.00 0.00 61 1012.8
20260503031011 68 0 0.0 2.0 0.00 0.00 0.00 61 1012.7
20260503030515 68 0 0.0 2.0 0.00 0.00 0.00 61 1012.6
20260503030031 69 0 0.0 2.0 0.00 0.00 0.00 61 1012.6
20260503025510 69 0 0.0 0.0 0.00 0.00 0.00 60 1012.5
20260503025010 69 0 0.0 1.0 0.00 0.00 0.00 59 1012.6
20260503024533 70 0 0.0 1.0 0.00 0.00 0.00 59 1012.4
20260503024011 70 0 0.0 3.0 0.00 0.00 0.00 60 1012.4
20260503023513 70 0 0.0 3.0 0.00 0.00 0.00 58 1012.4
20260503023030 71 305 0.0 2.0 0.00 0.00 0.00 58 1012.3
20260503022509 71 0 0.0 2.0 0.00 0.00 0.00 57 1012.3
20260503022014 71 0 0.0 2.0 0.00 0.00 0.00 56 1012.3
20260503021532 72 290 0.0 2.0 0.00 0.00 0.00 57 1012.2
20260503021014 72 0 0.0 2.0 0.00 0.00 0.00 57 1012.3
20260503020513 73 301 0.0 2.0 0.00 0.00 0.00 54 1012.3
20260503020031 73 276 0.0 2.0 0.00 0.00 0.00 54 1012.3
20260503015513 74 0 0.0 2.0 0.00 0.00 0.00 55 1012.3
20260503015013 74 0 0.0 2.0 0.00 0.00 0.00 54 1012.3
20260503014529 75 0 0.0 2.0 0.00 0.00 0.00 57 1012.3
20260503014014 75 0 0.0 2.0 0.00 0.00 0.00 53 1012.3
20260503013511 76 0 0.0 2.0 0.00 0.00 0.00 54 1012.3
20260503013029 76 0 0.0 2.0 0.00 0.00 0.00 54 1012.3
20260503012510 76 0 0.0 2.0 0.00 0.00 0.00 50 1012.3